owner,sensor,date,latitude,longitude,vertical_datum,mass_concentration_of_oxygen_in_sea_water,qcFlag 
SCCF RECON,ioos:station:SCCF:56:1,2014-02-01T00:00:00Z,26.4645,-82.1044,1.32,7.27,1111122 
SCCF RECON,ioos:station:SCCF:56:1,2014-02-01T01:00:00Z,26.4645,-82.1044,1.33,7.36,1111122 
SCCF RECON,ioos:station:SCCF:56:1,2014-02-01T02:00:00Z,26.4645,-82.1044,1.46,7.44,1111122 
SCCF RECON,ioos:station:SCCF:56:1,2014-02-01T03:00:00Z,26.4645,-82.1044,1.62,7.52,1111122 
SCCF RECON,ioos:station:SCCF:56:1,2014-02-01T04:00:00Z,26.4645,-82.1044,1.782,7.46,1111122 
SCCF RECON,ioos:station:SCCF:56:1,2014-02-01T05:00:00Z,26.4645,-82.1044,1.9,7.44,1111122 
SCCF RECON,ioos:station:SCCF:56:1,2014-02-01T06:00:00Z,26.4645,-82.1044,1.975,7.31,1111122 
SCCF RECON,ioos:station:SCCF:56:1,2014-02-01T07:00:00Z,26.4645,-82.1044,1.98,7.26,1111122 
SCCF RECON,ioos:station:SCCF:56:1,2014-02-01T08:00:00Z,26.4645,-82.1044,1.882,7.14,1111122 
SCCF RECON,ioos:station:SCCF:56:1,2014-02-01T09:00:00Z,26.4645,-82.1044,1.719,6.75,1111122 
SCCF RECON,ioos:station:SCCF:56:1,2014-02-01T10:00:00Z,26.4645,-82.1044,1.549,6.39,1111122 
SCCF RECON,ioos:station:SCCF:56:1,2014-02-01T11:00:00Z,26.4645,-82.1044,1.4,6.05,1111122 
SCCF RECON,ioos:station:SCCF:56:1,2014-02-01T12:00:00Z,26.4645,-82.1044,1.27,5.54,1111122 
SCCF RECON,ioos:station:SCCF:56:1,2014-02-01T13:00:00Z,26.4645,-82.1044,1.169,5.16,1111122 
SCCF RECON,ioos:station:SCCF:56:1,2014-02-01T14:00:00Z,26.4645,-82.1044,1.1,4.9,1111122 
SCCF RECON,ioos:station:SCCF:56:1,2014-02-01T15:00:00Z,26.4645,-82.1044,1.198,5.11,1111122 
SCCF RECON,ioos:station:SCCF:56:1,2014-02-01T16:00:00Z,26.4645,-82.1044,1.4,7.53,1111122 
SCCF RECON,ioos:station:SCCF:56:1,2014-02-01T17:00:00Z,26.4645,-82.1044,1.55,7.77,1111122 
SCCF RECON,ioos:station:SCCF:56:1,2014-02-01T18:00:00Z,26.4645,-82.1044,1.643,7.9,1111122 
SCCF RECON,ioos:station:SCCF:56:1,2014-02-01T19:00:00Z,26.4645,-82.1044,1.71,8.2,1111122 
SCCF RECON,ioos:station:SCCF:56:1,2014-02-01T20:00:00Z,26.4645,-82.1044,1.721,8.25,1111122 
SCCF RECON,ioos:station:SCCF:56:1,2014-02-01T21:00:00Z,26.4645,-82.1044,1.65,7.78,1111122 
SCCF RECON,ioos:station:SCCF:56:1,2014-02-01T22:00:00Z,26.4645,-82.1044,1.539,7.92,1111122 
SCCF RECON,ioos:station:SCCF:56:1,2014-02-01T23:00:00Z,26.4645,-82.1044,1.43,7.79,1111122 
SCCF RECON,ioos:station:SCCF:56:1,2014-02-02T00:00:00Z,26.4645,-82.1044,1.34,7.41,1111122 
SCCF RECON,ioos:station:SCCF:56:1,2014-02-02T01:00:00Z,26.4645,-82.1044,1.26,7.36,1111122 
SCCF RECON,ioos:station:SCCF:56:1,2014-02-02T02:00:00Z,26.4645,-82.1044,1.25,7.29,1111122 
SCCF RECON,ioos:station:SCCF:56:1,2014-02-02T03:00:00Z,26.4645,-82.1044,1.37,6.87,1111122 
SCCF RECON,ioos:station:SCCF:56:1,2014-02-02T04:00:00Z,26.4645,-82.1044,1.578,7.44,1111122 
SCCF RECON,ioos:station:SCCF:56:1,2014-02-02T05:00:00Z,26.4645,-82.1044,1.73,7.45,1111122 
SCCF RECON,ioos:station:SCCF:56:1,2014-02-02T06:00:00Z,26.4645,-82.1044,1.84,7.39,1111122 
SCCF RECON,ioos:station:SCCF:56:1,2014-02-02T07:00:00Z,26.4645,-82.1044,1.9,7.4,1111122 
SCCF RECON,ioos:station:SCCF:56:1,2014-02-02T08:00:00Z,26.4645,-82.1044,1.891,7.45,1111122 
SCCF RECON,ioos:station:SCCF:56:1,2014-02-02T09:00:00Z,26.4645,-82.1044,1.782,7.12,1111122 
SCCF RECON,ioos:station:SCCF:56:1,2014-02-02T10:00:00Z,26.4645,-82.1044,1.625,6.74,1111122 
SCCF RECON,ioos:station:SCCF:56:1,2014-02-02T11:00:00Z,26.4645,-82.1044,1.48,6.17,1111122 
SCCF RECON,ioos:station:SCCF:56:1,2014-02-02T12:00:00Z,26.4645,-82.1044,1.361,5.67,1111122 
SCCF RECON,ioos:station:SCCF:56:1,2014-02-02T13:00:00Z,26.4645,-82.1044,1.25,5.26,1111122 
SCCF RECON,ioos:station:SCCF:56:1,2014-02-02T14:00:00Z,26.4645,-82.1044,1.16,4.94,1111122 
SCCF RECON,ioos:station:SCCF:56:1,2014-02-02T15:00:00Z,26.4645,-82.1044,1.15,5.03,1111122 
SCCF RECON,ioos:station:SCCF:56:1,2014-02-02T16:00:00Z,26.4645,-82.1044,1.316,6.64,1111122 
SCCF RECON,ioos:station:SCCF:56:1,2014-02-02T17:00:00Z,26.4645,-82.1044,1.5,8.11,1111122 
SCCF RECON,ioos:station:SCCF:56:1,2014-02-02T18:00:00Z,26.4645,-82.1044,1.62,8.46,1111122 
SCCF RECON,ioos:station:SCCF:56:1,2014-02-02T19:00:00Z,26.4645,-82.1044,1.709,8.47,1111122 
SCCF RECON,ioos:station:SCCF:56:1,2014-02-02T20:00:00Z,26.4645,-82.1044,1.751,8.51,1111122 
SCCF RECON,ioos:station:SCCF:56:1,2014-02-02T21:00:00Z,26.4645,-82.1044,1.732,8.38,1111122 
SCCF RECON,ioos:station:SCCF:56:1,2014-02-02T22:00:00Z,26.4645,-82.1044,1.64,8.31,1111122 
SCCF RECON,ioos:station:SCCF:56:1,2014-02-02T23:00:00Z,26.4645,-82.1044,1.52,8.27,1111122 
SCCF RECON,ioos:station:SCCF:56:1,2014-02-03T00:00:00Z,26.4645,-82.1044,1.412,7.82,1111122 
SCCF RECON,ioos:station:SCCF:56:1,2014-02-03T01:00:00Z,26.4645,-82.1044,1.32,7.4,1111122 
SCCF RECON,ioos:station:SCCF:56:1,2014-02-03T02:00:00Z,26.4645,-82.1044,1.24,7.48,1111122 
SCCF RECON,ioos:station:SCCF:56:1,2014-02-03T03:00:00Z,26.4645,-82.1044,1.24,7.33,1111122 
SCCF RECON,ioos:station:SCCF:56:1,2014-02-03T04:00:00Z,26.4645,-82.1044,1.39,6.12,1111122 
SCCF RECON,ioos:station:SCCF:56:1,2014-02-03T05:00:00Z,26.4645,-82.1044,1.574,7.2,1111122 
SCCF RECON,ioos:station:SCCF:56:1,2014-02-03T06:00:00Z,26.4645,-82.1044,1.7,7.44,1111122 
SCCF RECON,ioos:station:SCCF:56:1,2014-02-03T07:00:00Z,26.4645,-82.1044,1.79,7.38,1111122 
SCCF RECON,ioos:station:SCCF:56:1,2014-02-03T08:00:00Z,26.4645,-82.1044,1.83,7.36,1111122 
SCCF RECON,ioos:station:SCCF:56:1,2014-02-03T09:00:00Z,26.4645,-82.1044,1.794,7.38,1111122 
SCCF RECON,ioos:station:SCCF:56:1,2014-02-03T10:00:00Z,26.4645,-82.1044,1.68,6.93,1111122 
SCCF RECON,ioos:station:SCCF:56:1,2014-02-03T11:00:00Z,26.4645,-82.1044,1.56,6.55,1111122 
SCCF RECON,ioos:station:SCCF:56:1,2014-02-03T12:00:00Z,26.4645,-82.1044,1.448,5.95,1111122 
SCCF RECON,ioos:station:SCCF:56:1,2014-02-03T13:00:00Z,26.4645,-82.1044,1.349,5.45,1111122 
SCCF RECON,ioos:station:SCCF:56:1,2014-02-03T14:00:00Z,26.4645,-82.1044,1.26,5.12,1111122 
SCCF RECON,ioos:station:SCCF:56:1,2014-02-03T15:00:00Z,26.4645,-82.1044,1.2,4.88,1111122 
SCCF RECON,ioos:station:SCCF:56:1,2014-02-03T16:00:00Z,26.4645,-82.1044,1.25,5.29,1111122 
SCCF RECON,ioos:station:SCCF:56:1,2014-02-03T17:00:00Z,26.4645,-82.1044,1.43,7.93,1111122 
SCCF RECON,ioos:station:SCCF:56:1,2014-02-03T18:00:00Z,26.4645,-82.1044,1.58,8.22,1111122 
SCCF RECON,ioos:station:SCCF:56:1,2014-02-03T19:00:00Z,26.4645,-82.1044,1.66,8.48,1111122 
SCCF RECON,ioos:station:SCCF:56:1,2014-02-03T20:00:00Z,26.4645,-82.1044,1.72,8.4,1111122 
SCCF RECON,ioos:station:SCCF:56:1,2014-02-03T21:00:00Z,26.4645,-82.1044,1.73,8.3,1111122 
SCCF RECON,ioos:station:SCCF:56:1,2014-02-03T22:00:00Z,26.4645,-82.1044,1.67,8.0,1111122 
SCCF RECON,ioos:station:SCCF:56:1,2014-02-03T23:00:00Z,26.4645,-82.1044,1.56,8.25,1111122 
SCCF RECON,ioos:station:SCCF:56:1,2014-02-04T00:00:00Z,26.4645,-82.1044,1.45,7.96,1111122 
SCCF RECON,ioos:station:SCCF:56:1,2014-02-04T01:00:00Z,26.4645,-82.1044,1.35,7.1,1111122 
SCCF RECON,ioos:station:SCCF:56:1,2014-02-04T02:00:00Z,26.4645,-82.1044,1.26,6.76,1111122 
SCCF RECON,ioos:station:SCCF:56:1,2014-02-04T03:00:00Z,26.4645,-82.1044,1.19,6.39,1111122 
SCCF RECON,ioos:station:SCCF:56:1,2014-02-04T04:00:00Z,26.4645,-82.1044,1.2,6.65,1111122 
SCCF RECON,ioos:station:SCCF:56:1,2014-02-04T05:00:00Z,26.4645,-82.1044,1.33,6.9,1111122 
SCCF RECON,ioos:station:SCCF:56:1,2014-02-04T06:00:00Z,26.4645,-82.1044,1.48,6.72,1111122 
SCCF RECON,ioos:station:SCCF:56:1,2014-02-04T07:00:00Z,26.4645,-82.1044,1.582,7.07,1111122 
SCCF RECON,ioos:station:SCCF:56:1,2014-02-04T08:00:00Z,26.4645,-82.1044,1.65,7.09,1111122 
SCCF RECON,ioos:station:SCCF:56:1,2014-02-04T09:00:00Z,26.4645,-82.1044,1.7,7.05,1111122 
SCCF RECON,ioos:station:SCCF:56:1,2014-02-04T10:00:00Z,26.4645,-82.1044,1.69,7.25,1111122 
SCCF RECON,ioos:station:SCCF:56:1,2014-02-04T11:00:00Z,26.4645,-82.1044,1.62,6.93,1111122 
SCCF RECON,ioos:station:SCCF:56:1,2014-02-04T12:00:00Z,26.4645,-82.1044,1.518,6.56,1111122 
SCCF RECON,ioos:station:SCCF:56:1,2014-02-04T13:00:00Z,26.4645,-82.1044,1.43,5.96,1111122 
SCCF RECON,ioos:station:SCCF:56:1,2014-02-04T14:00:00Z,26.4645,-82.1044,1.35,5.1,1111122 
SCCF RECON,ioos:station:SCCF:56:1,2014-02-04T15:00:00Z,26.4645,-82.1044,1.29,4.75,1111122 
SCCF RECON,ioos:station:SCCF:56:1,2014-02-04T16:00:00Z,26.4645,-82.1044,1.3,4.88,1111122 
SCCF RECON,ioos:station:SCCF:56:1,2014-02-04T17:00:00Z,26.4645,-82.1044,1.418,7.46,1111122 
SCCF RECON,ioos:station:SCCF:56:1,2014-02-04T18:00:00Z,26.4645,-82.1044,1.56,8.15,1111122 
SCCF RECON,ioos:station:SCCF:56:1,2014-02-04T19:00:00Z,26.4645,-82.1044,1.67,8.15,1111122 
SCCF RECON,ioos:station:SCCF:56:1,2014-02-04T20:00:00Z,26.4645,-82.1044,1.75,8.3,1111122 
SCCF RECON,ioos:station:SCCF:56:1,2014-02-04T21:00:00Z,26.4645,-82.1044,1.8,8.4,1111122 
SCCF RECON,ioos:station:SCCF:56:1,2014-02-04T22:00:00Z,26.4645,-82.1044,1.79,8.34,1111122 
SCCF RECON,ioos:station:SCCF:56:1,2014-02-04T23:00:00Z,26.4645,-82.1044,1.729,7.98,1111122 
SCCF RECON,ioos:station:SCCF:56:1,2014-02-05T00:00:00Z,26.4645,-82.1044,1.62,7.85,1111122 
SCCF RECON,ioos:station:SCCF:56:1,2014-02-05T01:00:00Z,26.4645,-82.1044,1.5,7.36,1111122 
SCCF RECON,ioos:station:SCCF:56:1,2014-02-05T02:00:00Z,26.4645,-82.1044,1.4,6.49,1111122 
SCCF RECON,ioos:station:SCCF:56:1,2014-02-05T03:00:00Z,26.4645,-82.1044,1.3,5.91,1111122 
SCCF RECON,ioos:station:SCCF:56:1,2014-02-05T04:00:00Z,26.4645,-82.1044,1.233,5.49,1111122 
SCCF RECON,ioos:station:SCCF:56:1,2014-02-05T05:00:00Z,26.4645,-82.1044,1.22,5.34,1111122 
SCCF RECON,ioos:station:SCCF:56:1,2014-02-05T06:00:00Z,26.4645,-82.1044,1.32,5.47,1111122 
SCCF RECON,ioos:station:SCCF:56:1,2014-02-05T07:00:00Z,26.4645,-82.1044,1.45,6.56,1111122 
SCCF RECON,ioos:station:SCCF:56:1,2014-02-05T08:00:00Z,26.4645,-82.1044,1.539,6.46,1111122 
SCCF RECON,ioos:station:SCCF:56:1,2014-02-05T09:00:00Z,26.4645,-82.1044,1.6,6.44,1111122 
SCCF RECON,ioos:station:SCCF:56:1,2014-02-05T10:00:00Z,26.4645,-82.1044,1.64,6.48,1111122 
SCCF RECON,ioos:station:SCCF:56:1,2014-02-05T11:00:00Z,26.4645,-82.1044,1.66,6.67,1111122 
SCCF RECON,ioos:station:SCCF:56:1,2014-02-05T12:00:00Z,26.4645,-82.1044,1.6,6.29,1111122 
SCCF RECON,ioos:station:SCCF:56:1,2014-02-05T13:00:00Z,26.4645,-82.1044,1.54,6.0,1111122 
SCCF RECON,ioos:station:SCCF:56:1,2014-02-05T14:00:00Z,26.4645,-82.1044,1.48,5.74,1111122 
SCCF RECON,ioos:station:SCCF:56:1,2014-02-05T15:00:00Z,26.4645,-82.1044,1.41,5.39,1111122 
SCCF RECON,ioos:station:SCCF:56:1,2014-02-05T16:00:00Z,26.4645,-82.1044,1.36,4.99,1111122 
SCCF RECON,ioos:station:SCCF:56:1,2014-02-05T17:00:00Z,26.4645,-82.1044,1.409,5.41,1111122 
SCCF RECON,ioos:station:SCCF:56:1,2014-02-05T18:00:00Z,26.4645,-82.1044,1.53,8.56,1111122 
SCCF RECON,ioos:station:SCCF:56:1,2014-02-05T19:00:00Z,26.4645,-82.1044,1.63,8.27,1111122 
SCCF RECON,ioos:station:SCCF:56:1,2014-02-05T20:00:00Z,26.4645,-82.1044,1.7,8.23,1111122 
SCCF RECON,ioos:station:SCCF:56:1,2014-02-05T21:00:00Z,26.4645,-82.1044,1.77,8.2,1111122 
SCCF RECON,ioos:station:SCCF:56:1,2014-02-05T22:00:00Z,26.4645,-82.1044,1.81,8.18,1111122 
SCCF RECON,ioos:station:SCCF:56:1,2014-02-05T23:00:00Z,26.4645,-82.1044,1.81,7.97,1111122 
SCCF RECON,ioos:station:SCCF:56:1,2014-02-06T00:00:00Z,26.4645,-82.1044,1.74,7.48,1111122 
SCCF RECON,ioos:station:SCCF:56:1,2014-02-06T01:00:00Z,26.4645,-82.1044,1.627,7.43,1111122 
SCCF RECON,ioos:station:SCCF:56:1,2014-02-06T02:00:00Z,26.4645,-82.1044,1.5,6.88,1111122 
SCCF RECON,ioos:station:SCCF:56:1,2014-02-06T03:00:00Z,26.4645,-82.1044,1.4,6.04,1111122 
SCCF RECON,ioos:station:SCCF:56:1,2014-02-06T04:00:00Z,26.4645,-82.1044,1.31,5.56,1111122 
SCCF RECON,ioos:station:SCCF:56:1,2014-02-06T05:00:00Z,26.4645,-82.1044,1.244,5.05,1111122 
SCCF RECON,ioos:station:SCCF:56:1,2014-02-06T06:00:00Z,26.4645,-82.1044,1.22,5.23,1111122 
SCCF RECON,ioos:station:SCCF:56:1,2014-02-06T07:00:00Z,26.4645,-82.1044,1.29,5.08,1111122 
SCCF RECON,ioos:station:SCCF:56:1,2014-02-06T08:00:00Z,26.4645,-82.1044,1.4,5.88,1111122 
SCCF RECON,ioos:station:SCCF:56:1,2014-02-06T09:00:00Z,26.4645,-82.1044,1.49,6.39,1111122 
SCCF RECON,ioos:station:SCCF:56:1,2014-02-06T10:00:00Z,26.4645,-82.1044,1.53,6.65,1111122 
SCCF RECON,ioos:station:SCCF:56:1,2014-02-06T11:00:00Z,26.4645,-82.1044,1.55,6.45,1111122 
SCCF RECON,ioos:station:SCCF:56:1,2014-02-06T12:00:00Z,26.4645,-82.1044,1.53,6.22,1111122 
SCCF RECON,ioos:station:SCCF:56:1,2014-02-06T13:00:00Z,26.4645,-82.1044,1.49,5.9,1111122 
SCCF RECON,ioos:station:SCCF:56:1,2014-02-06T14:00:00Z,26.4645,-82.1044,1.46,5.25,1111122 
SCCF RECON,ioos:station:SCCF:56:1,2014-02-06T15:00:00Z,26.4645,-82.1044,1.44,5.36,1111122 
SCCF RECON,ioos:station:SCCF:56:1,2014-02-06T16:00:00Z,26.4645,-82.1044,1.42,5.06,1111122 
SCCF RECON,ioos:station:SCCF:56:1,2014-02-06T17:00:00Z,26.4645,-82.1044,1.4,4.76,1111122 
SCCF RECON,ioos:station:SCCF:56:1,2014-02-06T18:00:00Z,26.4645,-82.1044,1.42,6.6,1111122 
SCCF RECON,ioos:station:SCCF:56:1,2014-02-06T19:00:00Z,26.4645,-82.1044,1.49,8.85,1111122 
SCCF RECON,ioos:station:SCCF:56:1,2014-02-06T20:00:00Z,26.4645,-82.1044,1.58,8.69,1111122 
SCCF RECON,ioos:station:SCCF:56:1,2014-02-06T21:00:00Z,26.4645,-82.1044,1.65,8.64,1111122 
SCCF RECON,ioos:station:SCCF:56:1,2014-02-06T22:00:00Z,26.4645,-82.1044,1.71,8.84,1111122 
SCCF RECON,ioos:station:SCCF:56:1,2014-02-06T23:00:00Z,26.4645,-82.1044,1.76,8.27,1111122 
SCCF RECON,ioos:station:SCCF:56:1,2014-02-07T00:00:00Z,26.4645,-82.1044,1.77,7.75,1111122 
SCCF RECON,ioos:station:SCCF:56:1,2014-02-07T01:00:00Z,26.4645,-82.1044,1.7,7.63,1111122 
SCCF RECON,ioos:station:SCCF:56:1,2014-02-07T02:00:00Z,26.4645,-82.1044,1.6,7.22,1111122 
SCCF RECON,ioos:station:SCCF:56:1,2014-02-07T03:00:00Z,26.4645,-82.1044,1.52,6.62,1111122 
SCCF RECON,ioos:station:SCCF:56:1,2014-02-07T04:00:00Z,26.4645,-82.1044,1.4,5.62,1111122 
SCCF RECON,ioos:station:SCCF:56:1,2014-02-07T05:00:00Z,26.4645,-82.1044,1.29,4.62,1111122 
SCCF RECON,ioos:station:SCCF:56:1,2014-02-07T06:00:00Z,26.4645,-82.1044,1.21,4.02,1111122 
SCCF RECON,ioos:station:SCCF:56:1,2014-02-07T07:00:00Z,26.4645,-82.1044,1.207,4.38,1111122 
SCCF RECON,ioos:station:SCCF:56:1,2014-02-07T08:00:00Z,26.4645,-82.1044,1.22,4.28,1111122 
SCCF RECON,ioos:station:SCCF:56:1,2014-02-07T09:00:00Z,26.4645,-82.1044,1.28,4.37,1111122 
SCCF RECON,ioos:station:SCCF:56:1,2014-02-07T10:00:00Z,26.4645,-82.1044,1.35,4.47,1111122 
SCCF RECON,ioos:station:SCCF:56:1,2014-02-07T11:00:00Z,26.4645,-82.1044,1.409,5.06,1111122 
SCCF RECON,ioos:station:SCCF:56:1,2014-02-07T12:00:00Z,26.4645,-82.1044,1.46,6.22,1111122 
SCCF RECON,ioos:station:SCCF:56:1,2014-02-07T13:00:00Z,26.4645,-82.1044,1.49,5.85,1111122 
SCCF RECON,ioos:station:SCCF:56:1,2014-02-07T14:00:00Z,26.4645,-82.1044,1.468,5.87,1111122 
SCCF RECON,ioos:station:SCCF:56:1,2014-02-07T15:00:00Z,26.4645,-82.1044,1.42,5.82,1111122 
SCCF RECON,ioos:station:SCCF:56:1,2014-02-07T16:00:00Z,26.4645,-82.1044,1.469,6.44,1111122 
SCCF RECON,ioos:station:SCCF:56:1,2014-02-07T17:00:00Z,26.4645,-82.1044,1.51,8.04,1111122 
SCCF RECON,ioos:station:SCCF:56:1,2014-02-07T18:00:00Z,26.4645,-82.1044,1.52,8.44,1111122 
SCCF RECON,ioos:station:SCCF:56:1,2014-02-07T19:00:00Z,26.4645,-82.1044,1.54,8.29,1111122 
SCCF RECON,ioos:station:SCCF:56:1,2014-02-07T20:00:00Z,26.4645,-82.1044,1.59,8.89,1111122 
SCCF RECON,ioos:station:SCCF:56:1,2014-02-07T21:00:00Z,26.4645,-82.1044,1.666,9.25,1111122 
SCCF RECON,ioos:station:SCCF:56:1,2014-02-07T22:00:00Z,26.4645,-82.1044,1.745,9.3,1111122 
SCCF RECON,ioos:station:SCCF:56:1,2014-02-07T23:00:00Z,26.4645,-82.1044,1.79,8.8,1111122 
SCCF RECON,ioos:station:SCCF:56:1,2014-02-08T00:00:00Z,26.4645,-82.1044,1.8,8.4,1111122 
SCCF RECON,ioos:station:SCCF:56:1,2014-02-08T01:00:00Z,26.4645,-82.1044,1.79,7.8,1111122 
SCCF RECON,ioos:station:SCCF:56:1,2014-02-08T02:00:00Z,26.4645,-82.1044,1.71,7.82,1111122 
SCCF RECON,ioos:station:SCCF:56:1,2014-02-08T03:00:00Z,26.4645,-82.1044,1.638,7.43,1111122 
SCCF RECON,ioos:station:SCCF:56:1,2014-02-08T04:00:00Z,26.4645,-82.1044,1.55,6.79,1111122 
SCCF RECON,ioos:station:SCCF:56:1,2014-02-08T05:00:00Z,26.4645,-82.1044,1.44,5.73,1111122 
SCCF RECON,ioos:station:SCCF:56:1,2014-02-08T06:00:00Z,26.4645,-82.1044,1.337,5.08,1111122 
SCCF RECON,ioos:station:SCCF:56:1,2014-02-08T07:00:00Z,26.4645,-82.1044,1.234,4.65,1111122 
SCCF RECON,ioos:station:SCCF:56:1,2014-02-08T08:00:00Z,26.4645,-82.1044,1.15,4.65,1111122 
SCCF RECON,ioos:station:SCCF:56:1,2014-02-08T09:00:00Z,26.4645,-82.1044,1.17,4.54,1111122 
SCCF RECON,ioos:station:SCCF:56:1,2014-02-08T10:00:00Z,26.4645,-82.1044,1.27,4.44,1111122 
SCCF RECON,ioos:station:SCCF:56:1,2014-02-08T11:00:00Z,26.4645,-82.1044,1.37,4.94,1111122 
SCCF RECON,ioos:station:SCCF:56:1,2014-02-08T12:00:00Z,26.4645,-82.1044,1.45,4.84,1111122 
SCCF RECON,ioos:station:SCCF:56:1,2014-02-08T13:00:00Z,26.4645,-82.1044,1.51,5.16,1111122 
SCCF RECON,ioos:station:SCCF:56:1,2014-02-08T14:00:00Z,26.4645,-82.1044,1.57,6.14,1111122 
SCCF RECON,ioos:station:SCCF:56:1,2014-02-08T15:00:00Z,26.4645,-82.1044,1.57,6.75,1111122 
SCCF RECON,ioos:station:SCCF:56:1,2014-02-08T16:00:00Z,26.4645,-82.1044,1.576,6.89,1111122 
SCCF RECON,ioos:station:SCCF:56:1,2014-02-08T17:00:00Z,26.4645,-82.1044,1.553,6.61,1111122 
SCCF RECON,ioos:station:SCCF:56:1,2014-02-08T18:00:00Z,26.4645,-82.1044,1.559,7.21,1111122 
SCCF RECON,ioos:station:SCCF:56:1,2014-02-08T19:00:00Z,26.4645,-82.1044,1.51,7.5,1111122 
SCCF RECON,ioos:station:SCCF:56:1,2014-02-08T20:00:00Z,26.4645,-82.1044,1.53,7.34,1111122 
SCCF RECON,ioos:station:SCCF:56:1,2014-02-08T21:00:00Z,26.4645,-82.1044,1.58,9.44,1111122 
SCCF RECON,ioos:station:SCCF:56:1,2014-02-08T22:00:00Z,26.4645,-82.1044,1.64,8.71,1111122 
SCCF RECON,ioos:station:SCCF:56:1,2014-02-08T23:00:00Z,26.4645,-82.1044,1.68,8.1,1111122 
SCCF RECON,ioos:station:SCCF:56:1,2014-02-09T00:00:00Z,26.4645,-82.1044,1.68,7.67,1111122 
SCCF RECON,ioos:station:SCCF:56:1,2014-02-09T01:00:00Z,26.4645,-82.1044,1.73,7.22,1111122 
SCCF RECON,ioos:station:SCCF:56:1,2014-02-09T02:00:00Z,26.4645,-82.1044,1.63,7.21,1111122 
SCCF RECON,ioos:station:SCCF:56:1,2014-02-09T03:00:00Z,26.4645,-82.1044,1.56,6.8,1111122 
SCCF RECON,ioos:station:SCCF:56:1,2014-02-09T04:00:00Z,26.4645,-82.1044,1.5,6.61,1111122 
SCCF RECON,ioos:station:SCCF:56:1,2014-02-09T05:00:00Z,26.4645,-82.1044,1.43,5.71,1111122 
SCCF RECON,ioos:station:SCCF:56:1,2014-02-09T06:00:00Z,26.4645,-82.1044,1.35,5.0,1111122 
SCCF RECON,ioos:station:SCCF:56:1,2014-02-09T07:00:00Z,26.4645,-82.1044,1.24,4.1,1111122 
SCCF RECON,ioos:station:SCCF:56:1,2014-02-09T08:00:00Z,26.4645,-82.1044,1.146,3.74,1111122 
SCCF RECON,ioos:station:SCCF:56:1,2014-02-09T09:00:00Z,26.4645,-82.1044,1.079,3.65,1111122 
SCCF RECON,ioos:station:SCCF:56:1,2014-02-09T10:00:00Z,26.4645,-82.1044,1.07,3.56,1111122 
SCCF RECON,ioos:station:SCCF:56:1,2014-02-09T11:00:00Z,26.4645,-82.1044,1.189,5.16,1111122 
SCCF RECON,ioos:station:SCCF:56:1,2014-02-09T12:00:00Z,26.4645,-82.1044,1.337,5.75,1111122 
SCCF RECON,ioos:station:SCCF:56:1,2014-02-09T13:00:00Z,26.4645,-82.1044,1.45,5.73,1111122 
SCCF RECON,ioos:station:SCCF:56:1,2014-02-09T14:00:00Z,26.4645,-82.1044,1.54,5.85,1111122 
SCCF RECON,ioos:station:SCCF:56:1,2014-02-09T15:00:00Z,26.4645,-82.1044,1.59,6.78,1111122 
SCCF RECON,ioos:station:SCCF:56:1,2014-02-09T16:00:00Z,26.4645,-82.1044,1.61,7.11,1111122 
SCCF RECON,ioos:station:SCCF:56:1,2014-02-09T17:00:00Z,26.4645,-82.1044,1.598,7.29,1111122 
SCCF RECON,ioos:station:SCCF:56:1,2014-02-09T18:00:00Z,26.4645,-82.1044,1.55,7.05,1111122 
SCCF RECON,ioos:station:SCCF:56:1,2014-02-09T19:00:00Z,26.4645,-82.1044,1.5,6.87,1111122 
SCCF RECON,ioos:station:SCCF:56:1,2014-02-09T20:00:00Z,26.4645,-82.1044,1.473,6.96,1111122 
SCCF RECON,ioos:station:SCCF:56:1,2014-02-09T21:00:00Z,26.4645,-82.1044,1.471,7.13,1111122 
SCCF RECON,ioos:station:SCCF:56:1,2014-02-09T22:00:00Z,26.4645,-82.1044,1.51,9.01,1111122 
SCCF RECON,ioos:station:SCCF:56:1,2014-02-09T23:00:00Z,26.4645,-82.1044,1.57,9.21,1111122 
SCCF RECON,ioos:station:SCCF:56:1,2014-02-10T00:00:00Z,26.4645,-82.1044,1.61,8.53,1111122 
SCCF RECON,ioos:station:SCCF:56:1,2014-02-10T01:00:00Z,26.4645,-82.1044,1.65,7.8,1111122 
SCCF RECON,ioos:station:SCCF:56:1,2014-02-10T02:00:00Z,26.4645,-82.1044,1.68,7.48,1111122 
SCCF RECON,ioos:station:SCCF:56:1,2014-02-10T03:00:00Z,26.4645,-82.1044,1.68,6.96,1111122 
SCCF RECON,ioos:station:SCCF:56:1,2014-02-10T04:00:00Z,26.4645,-82.1044,1.65,7.01,1111122 
SCCF RECON,ioos:station:SCCF:56:1,2014-02-10T05:00:00Z,26.4645,-82.1044,1.56,6.72,1111122 
SCCF RECON,ioos:station:SCCF:56:1,2014-02-10T06:00:00Z,26.4645,-82.1044,1.43,6.01,1111122 
SCCF RECON,ioos:station:SCCF:56:1,2014-02-10T07:00:00Z,26.4645,-82.1044,1.3,5.08,1111122 
SCCF RECON,ioos:station:SCCF:56:1,2014-02-10T08:00:00Z,26.4645,-82.1044,1.181,4.67,1111122 
SCCF RECON,ioos:station:SCCF:56:1,2014-02-10T09:00:00Z,26.4645,-82.1044,1.09,4.32,1111122 
SCCF RECON,ioos:station:SCCF:56:1,2014-02-10T10:00:00Z,26.4645,-82.1044,1.021,3.99,1111122 
SCCF RECON,ioos:station:SCCF:56:1,2014-02-10T11:00:00Z,26.4645,-82.1044,1.06,3.91,1111122 
SCCF RECON,ioos:station:SCCF:56:1,2014-02-10T12:00:00Z,26.4645,-82.1044,1.2,5.74,1111122 
SCCF RECON,ioos:station:SCCF:56:1,2014-02-10T13:00:00Z,26.4645,-82.1044,1.33,5.76,1111122 
SCCF RECON,ioos:station:SCCF:56:1,2014-02-10T14:00:00Z,26.4645,-82.1044,1.428,6.58,1111122 
SCCF RECON,ioos:station:SCCF:56:1,2014-02-10T15:00:00Z,26.4645,-82.1044,1.51,7.16,1111122 
SCCF RECON,ioos:station:SCCF:56:1,2014-02-10T16:00:00Z,26.4645,-82.1044,1.566,7.61,1111122 
SCCF RECON,ioos:station:SCCF:56:1,2014-02-10T17:00:00Z,26.4645,-82.1044,1.6,8.18,1111122 
SCCF RECON,ioos:station:SCCF:56:1,2014-02-10T18:00:00Z,26.4645,-82.1044,1.59,8.35,1111122 
SCCF RECON,ioos:station:SCCF:56:1,2014-02-10T19:00:00Z,26.4645,-82.1044,1.54,7.67,1111122 
SCCF RECON,ioos:station:SCCF:56:1,2014-02-10T20:00:00Z,26.4645,-82.1044,1.49,7.93,1111122 
SCCF RECON,ioos:station:SCCF:56:1,2014-02-10T21:00:00Z,26.4645,-82.1044,1.47,8.01,1111122 
SCCF RECON,ioos:station:SCCF:56:1,2014-02-10T22:00:00Z,26.4645,-82.1044,1.48,8.01,1111122 
SCCF RECON,ioos:station:SCCF:56:1,2014-02-10T23:00:00Z,26.4645,-82.1044,1.56,8.59,1111122 
SCCF RECON,ioos:station:SCCF:56:1,2014-02-11T00:00:00Z,26.4645,-82.1044,1.63,7.64,1111122 
SCCF RECON,ioos:station:SCCF:56:1,2014-02-11T01:00:00Z,26.4645,-82.1044,1.71,7.6,1111122 
SCCF RECON,ioos:station:SCCF:56:1,2014-02-11T02:00:00Z,26.4645,-82.1044,1.75,7.19,1111122 
SCCF RECON,ioos:station:SCCF:56:1,2014-02-11T03:00:00Z,26.4645,-82.1044,1.75,7.09,1111122 
SCCF RECON,ioos:station:SCCF:56:1,2014-02-11T04:00:00Z,26.4645,-82.1044,1.73,6.84,1111122 
SCCF RECON,ioos:station:SCCF:56:1,2014-02-11T05:00:00Z,26.4645,-82.1044,1.68,6.73,1111122 
SCCF RECON,ioos:station:SCCF:56:1,2014-02-11T06:00:00Z,26.4645,-82.1044,1.58,6.41,1111122 
SCCF RECON,ioos:station:SCCF:56:1,2014-02-11T07:00:00Z,26.4645,-82.1044,1.46,6.03,1111122 
SCCF RECON,ioos:station:SCCF:56:1,2014-02-11T08:00:00Z,26.4645,-82.1044,1.32,5.52,1111122 
SCCF RECON,ioos:station:SCCF:56:1,2014-02-11T09:00:00Z,26.4645,-82.1044,1.202,5.0,1111122 
SCCF RECON,ioos:station:SCCF:56:1,2014-02-11T10:00:00Z,26.4645,-82.1044,1.1,4.55,1111122 
SCCF RECON,ioos:station:SCCF:56:1,2014-02-11T11:00:00Z,26.4645,-82.1044,1.04,4.39,1111122 
SCCF RECON,ioos:station:SCCF:56:1,2014-02-11T12:00:00Z,26.4645,-82.1044,1.11,4.19,1111122 
SCCF RECON,ioos:station:SCCF:56:1,2014-02-11T13:00:00Z,26.4645,-82.1044,1.26,5.8,1111122 
SCCF RECON,ioos:station:SCCF:56:1,2014-02-11T14:00:00Z,26.4645,-82.1044,1.391,6.37,1111122 
SCCF RECON,ioos:station:SCCF:56:1,2014-02-11T15:00:00Z,26.4645,-82.1044,1.5,6.92,1111122 
SCCF RECON,ioos:station:SCCF:56:1,2014-02-11T16:00:00Z,26.4645,-82.1044,1.589,7.37,1111122 
SCCF RECON,ioos:station:SCCF:56:1,2014-02-11T17:00:00Z,26.4645,-82.1044,1.637,7.69,1111122 
SCCF RECON,ioos:station:SCCF:56:1,2014-02-11T18:00:00Z,26.4645,-82.1044,1.62,7.87,1111122 
SCCF RECON,ioos:station:SCCF:56:1,2014-02-11T19:00:00Z,26.4645,-82.1044,1.56,7.94,1111122 
SCCF RECON,ioos:station:SCCF:56:1,2014-02-11T20:00:00Z,26.4645,-82.1044,1.478,7.16,1111122 
SCCF RECON,ioos:station:SCCF:56:1,2014-02-11T21:00:00Z,26.4645,-82.1044,1.42,8.08,1111122 